#Datum;Uhrzeit;WR;Pac;DaySum;Status;WR;Pac;DaySum;Status;Pdc1;Udc;Temp;WR;Pac;DaySum;Status;Pdc1;Udc;Temp;WR;Pac;DaySum;Status;Pdc1;Udc;Temp;WR;Pac;DaySum;Status;Pdc1;Pdc2;Udc1;Udc2;Temp;WR;Pac;DaySum;Status;Pdc1;Pdc2;Udc1;Udc2;Temp;WR;Pac;DaySum;Status;Pdc1;Udc;Temp;WR;Pac;DaySum;Status;Pdc1;Udc;Temp;WR;Pac;DaySum;Status;Pdc1;Udc;Temp
17.02.18;23:55:00;1;274;10624;0;2;0;5154;0;0;0;0;3;0;3279;0;0;0;0;4;0;4548;0;0;0;0;5;0;11799;0;0;0;0;0;0;6;0;8774;0;0;0;0;0;0;7;0;6120;0;0;0;0;8;0;6137;0;0;0;0;9;0;3310;0;0;0;0
17.02.18;23:50:00;1;806;10584;0;2;0;5154;0;0;0;0;3;0;3279;0;0;0;0;4;0;4548;0;0;0;0;5;0;11799;0;0;0;0;0;0;6;0;8774;0;0;0;0;0;0;7;0;6120;0;0;0;0;8;0;6137;0;0;0;0;9;0;3310;0;0;0;0
17.02.18;23:45:00;1;826;10531;0;2;0;5154;0;0;0;0;3;0;3279;0;0;0;0;4;0;4548;0;0;0;0;5;0;11799;0;0;0;0;0;0;6;0;8774;0;0;0;0;0;0;7;0;6120;0;0;0;0;8;0;6137;0;0;0;0;9;0;3310;0;0;0;0
17.02.18;23:40:00;1;417;10466;0;2;0;5154;0;0;0;0;3;0;3279;0;0;0;0;4;0;4548;0;0;0;0;5;0;11799;0;0;0;0;0;0;6;0;8774;0;0;0;0;0;0;7;0;6120;0;0;0;0;8;0;6137;0;0;0;0;9;0;3310;0;0;0;0
17.02.18;23:35:00;1;455;10431;0;2;0;5154;0;0;0;0;3;0;3279;0;0;0;0;4;0;4548;0;0;0;0;5;0;11799;0;0;0;0;0;0;6;0;8774;0;0;0;0;0;0;7;0;6120;0;0;0;0;8;0;6137;0;0;0;0;9;0;3310;0;0;0;0
17.02.18;23:30:00;1;463;10393;0;2;0;5154;0;0;0;0;3;0;3279;0;0;0;0;4;0;4548;0;0;0;0;5;0;11799;0;0;0;0;0;0;6;0;8774;0;0;0;0;0;0;7;0;6120;0;0;0;0;8;0;6137;0;0;0;0;9;0;3310;0;0;0;0
17.02.18;23:25:00;1;854;10355;0;2;0;5154;0;0;0;0;3;0;3279;0;0;0;0;4;0;4548;0;0;0;0;5;0;11799;0;0;0;0;0;0;6;0;8774;0;0;0;0;0;0;7;0;6120;0;0;0;0;8;0;6137;0;0;0;0;9;0;3310;0;0;0;0
17.02.18;23:20:00;1;479;10287;0;2;0;5154;0;0;0;0;3;0;3279;0;0;0;0;4;0;4548;0;0;0;0;5;0;11799;0;0;0;0;0;0;6;0;8774;0;0;0;0;0;0;7;0;6120;0;0;0;0;8;0;6137;0;0;0;0;9;0;3310;0;0;0;0
17.02.18;23:15:00;1;462;10248;0;2;0;5154;0;0;0;0;3;0;3279;0;0;0;0;4;0;4548;0;0;0;0;5;0;11799;0;0;0;0;0;0;6;0;8774;0;0;0;0;0;0;7;0;6120;0;0;0;0;8;0;6137;0;0;0;0;9;0;3310;0;0;0;0
17.02.18;23:10:00;1;469;10209;0;2;0;5154;0;0;0;0;3;0;3279;0;0;0;0;4;0;4548;0;0;0;0;5;0;11799;0;0;0;0;0;0;6;0;8774;0;0;0;0;0;0;7;0;6120;0;0;0;0;8;0;6137;0;0;0;0;9;0;3310;0;0;0;0
17.02.18;23:05:00;1;663;10153;0;2;0;5154;0;0;0;0;3;0;3279;0;0;0;0;4;0;4548;0;0;0;0;5;0;11799;0;0;0;0;0;0;6;0;8774;0;0;0;0;0;0;7;0;6120;0;0;0;0;8;0;6137;0;0;0;0;9;0;3310;0;0;0;0
17.02.18;23:00:00;1;480;10101;0;2;0;5154;0;0;0;0;3;0;3279;0;0;0;0;4;0;4548;0;0;0;0;5;0;11799;0;0;0;0;0;0;6;0;8774;0;0;0;0;0;0;7;0;6120;0;0;0;0;8;0;6137;0;0;0;0;9;0;3310;0;0;0;0
17.02.18;22:55:00;1;518;10061;0;2;0;5154;0;0;0;0;3;0;3279;0;0;0;0;4;0;4548;0;0;0;0;5;0;11799;2;0;0;0;0;0;6;0;8774;2;0;0;0;0;0;7;0;6120;0;0;0;0;8;0;6137;0;0;0;0;9;0;3310;0;0;0;0
17.02.18;22:50:00;1;723;10018;0;2;0;5154;0;0;0;0;3;0;3279;0;0;0;0;4;0;4548;0;0;0;0;5;0;11799;2;0;0;0;0;0;6;0;8774;2;0;0;0;0;0;7;0;6120;0;0;0;0;8;0;6137;0;0;0;0;9;0;3310;0;0;0;0
17.02.18;22:45:00;1;499;9942;0;2;0;5154;0;0;0;0;3;0;3279;0;0;0;0;4;0;4548;0;0;0;0;5;0;11799;2;0;0;0;0;0;6;0;8774;2;0;0;0;0;0;7;0;6120;0;0;0;0;8;0;6137;0;0;0;0;9;0;3310;0;0;0;0
17.02.18;22:40:00;1;501;9900;0;2;0;5154;0;0;0;0;3;0;3279;0;0;0;0;4;0;4548;0;0;0;0;5;0;11799;2;0;0;0;0;0;6;0;8774;2;0;0;0;0;0;7;0;6120;0;0;0;0;8;0;6137;0;0;0;0;9;0;3310;0;0;0;0
17.02.18;22:35:00;1;449;9859;0;2;0;5154;0;0;0;0;3;0;3279;0;0;0;0;4;0;4548;0;0;0;0;5;0;11799;2;0;0;0;0;0;6;0;8774;2;0;0;0;0;0;7;0;6120;0;0;0;0;8;0;6137;0;0;0;0;9;0;3310;0;0;0;0
17.02.18;22:30:00;1;805;9821;0;2;0;5154;0;0;0;0;3;0;3279;0;0;0;0;4;0;4548;0;0;0;0;5;0;11799;2;0;0;0;0;0;6;0;8774;2;0;0;0;0;0;7;0;6120;0;0;0;0;8;0;6137;0;0;0;0;9;0;3310;0;0;0;0
17.02.18;22:25:00;1;452;9753;0;2;0;5154;0;0;0;0;3;0;3279;0;0;0;0;4;0;4548;0;0;0;0;5;0;11799;2;0;0;0;0;0;6;0;8774;2;0;0;0;0;0;7;0;6120;0;0;0;0;8;0;6137;0;0;0;0;9;0;3310;0;0;0;0
17.02.18;22:20:00;1;452;9715;0;2;0;5154;0;0;0;0;3;0;3279;0;0;0;0;4;0;4548;0;0;0;0;5;0;11799;2;0;0;0;0;0;6;0;8774;2;0;0;0;0;0;7;0;6120;0;0;0;0;8;0;6137;0;0;0;0;9;0;3310;0;0;0;0
17.02.18;22:15:00;1;450;9677;0;2;0;5154;0;0;0;0;3;0;3279;0;0;0;0;4;0;4548;0;0;0;0;5;0;11799;2;0;0;0;0;0;6;0;8774;2;0;0;0;0;0;7;0;6120;0;0;0;0;8;0;6137;0;0;0;0;9;0;3310;0;0;0;0
17.02.18;22:10:00;1;641;9640;0;2;0;5154;0;0;0;0;3;0;3279;0;0;0;0;4;0;4548;0;0;0;0;5;0;11799;2;0;0;0;0;0;6;0;8774;2;0;0;0;0;0;7;0;6120;0;0;0;0;8;0;6137;0;0;0;0;9;0;3310;0;0;0;0
17.02.18;22:05:00;1;495;9567;0;2;0;5154;0;0;0;0;3;0;3279;0;0;0;0;4;0;4548;0;0;0;0;5;0;11799;2;0;0;0;0;0;6;0;8774;2;0;0;0;0;0;7;0;6120;0;0;0;0;8;0;6137;0;0;0;0;9;0;3310;0;0;0;0
17.02.18;22:00:00;1;505;9526;0;2;0;5154;0;0;0;0;3;0;3279;0;0;0;0;4;0;4548;0;0;0;0;5;0;11799;2;0;0;0;0;0;6;0;8774;2;0;0;0;0;0;7;0;6120;0;0;0;0;8;0;6137;0;0;0;0;9;0;3310;0;0;0;0
17.02.18;21:55:00;1;499;9484;0;2;0;5154;0;0;0;0;3;0;3279;0;0;0;0;4;0;4548;0;0;0;0;5;0;11799;2;0;0;0;0;0;6;0;8774;2;0;0;0;0;0;7;0;6120;0;0;0;0;8;0;6137;0;0;0;0;9;0;3310;0;0;0;0
17.02.18;21:50:00;1;668;9441;0;2;0;5154;0;0;0;0;3;0;3279;0;0;0;0;4;0;4548;0;0;0;0;5;0;11799;2;0;0;0;0;0;6;0;8774;2;0;0;0;0;0;7;0;6120;0;0;0;0;8;0;6137;0;0;0;0;9;0;3310;0;0;0;0
17.02.18;21:45:00;1;453;9373;0;2;0;5154;0;0;0;0;3;0;3279;0;0;0;0;4;0;4548;0;0;0;0;5;0;11799;2;0;0;0;0;0;6;0;8774;2;0;0;0;0;0;7;0;6120;0;0;0;0;8;0;6137;0;0;0;0;9;0;3310;0;0;0;0
17.02.18;21:40:00;1;456;9335;0;2;0;5154;0;0;0;0;3;0;3279;0;0;0;0;4;0;4548;0;0;0;0;5;0;11799;2;0;0;0;0;0;6;0;8774;2;0;0;0;0;0;7;0;6120;0;0;0;0;8;0;6137;0;0;0;0;9;0;3310;0;0;0;0
17.02.18;21:35:00;1;656;9297;0;2;0;5154;0;0;0;0;3;0;3279;0;0;0;0;4;0;4548;0;0;0;0;5;0;11799;2;0;0;0;0;0;6;0;8774;2;0;0;0;0;0;7;0;6120;0;0;0;0;8;0;6137;0;0;0;0;9;0;3310;0;0;0;0
17.02.18;21:30:00;1;575;9230;0;2;0;5154;0;0;0;0;3;0;3279;0;0;0;0;4;0;4548;0;0;0;0;5;0;11799;2;0;0;0;0;0;6;0;8774;2;0;0;0;0;0;7;0;6120;0;0;0;0;8;0;6137;0;0;0;0;9;0;3310;0;0;0;0
17.02.18;21:25:00;1;519;9190;0;2;0;5154;0;0;0;0;3;0;3279;0;0;0;0;4;0;4548;0;0;0;0;5;0;11799;2;0;0;0;0;0;6;0;8774;2;0;0;0;0;0;7;0;6120;0;0;0;0;8;0;6137;0;0;0;0;9;0;3310;0;0;0;0
17.02.18;21:20:00;1;594;9146;0;2;0;5154;0;0;0;0;3;0;3279;0;0;0;0;4;0;4548;0;0;0;0;5;0;11799;2;0;0;0;0;0;6;0;8774;2;0;0;0;0;0;7;0;6120;0;0;0;0;8;0;6137;0;0;0;0;9;0;3310;0;0;0;0
17.02.18;21:15:00;1;810;9096;0;2;0;5154;0;0;0;0;3;0;3279;0;0;0;0;4;0;4548;0;0;0;0;5;0;11799;2;0;0;0;0;0;6;0;8774;2;0;0;0;0;0;7;0;6120;0;0;0;0;8;0;6137;0;0;0;0;9;0;3310;0;0;0;0
17.02.18;21:10:00;1;619;9013;0;2;0;5154;0;0;0;0;3;0;3279;0;0;0;0;4;0;4548;0;0;0;0;5;0;11799;2;0;0;0;0;0;6;0;8774;2;0;0;0;0;0;7;0;6120;0;0;0;0;8;0;6137;0;0;0;0;9;0;3310;0;0;0;0
17.02.18;21:05:00;1;593;8961;0;2;0;5154;0;0;0;0;3;0;3279;0;0;0;0;4;0;4548;0;0;0;0;5;0;11799;2;0;0;0;0;0;6;0;8774;2;0;0;0;0;0;7;0;6120;0;0;0;0;8;0;6137;0;0;0;0;9;0;3310;0;0;0;0
17.02.18;21:00:00;1;602;8911;0;2;0;5154;0;0;0;0;3;0;3279;0;0;0;0;4;0;4548;0;0;0;0;5;0;11799;2;0;0;0;0;0;6;0;8774;2;0;0;0;0;0;7;0;6120;0;0;0;0;8;0;6137;0;0;0;0;9;0;3310;0;0;0;0
17.02.18;20:55:00;1;947;8862;0;2;0;5154;0;0;0;0;3;0;3279;0;0;0;0;4;0;4548;0;0;0;0;5;0;11799;2;0;0;0;0;0;6;0;8774;2;0;0;0;0;0;7;0;6120;0;0;0;0;8;0;6137;0;0;0;0;9;0;3310;0;0;0;0
17.02.18;20:50:00;1;415;8786;0;2;0;5154;0;0;0;0;3;0;3279;0;0;0;0;4;0;4548;0;0;0;0;5;0;11799;2;0;0;0;0;0;6;0;8774;2;0;0;0;0;0;7;0;6120;0;0;0;0;8;0;6137;0;0;0;0;9;0;3310;0;0;0;0
17.02.18;20:45:00;1;379;8753;0;2;0;5154;0;0;0;0;3;0;3279;0;0;0;0;4;0;4548;0;0;0;0;5;0;11799;2;0;0;0;0;0;6;0;8774;2;0;0;0;0;0;7;0;6120;0;0;0;0;8;0;6137;0;0;0;0;9;0;3310;0;0;0;0
17.02.18;20:40:00;1;575;8721;0;2;0;5154;0;0;0;0;3;0;3279;0;0;0;0;4;0;4548;0;0;0;0;5;0;11799;2;0;0;0;0;0;6;0;8774;2;0;0;0;0;0;7;0;6120;0;0;0;0;8;0;6137;0;0;0;0;9;0;3310;0;0;0;0
17.02.18;20:35:00;1;793;8674;0;2;0;5154;0;0;0;0;3;0;3279;0;0;0;0;4;0;4548;0;0;0;0;5;0;11799;2;0;0;0;0;0;6;0;8774;2;0;0;0;0;0;7;0;6120;0;0;0;0;8;0;6137;0;0;0;0;9;0;3310;0;0;0;0
17.02.18;20:30:00;1;503;8596;0;2;0;5154;0;0;0;0;3;0;3279;0;0;0;0;4;0;4548;0;0;0;0;5;0;11799;2;0;0;0;0;0;6;0;8774;2;0;0;0;0;0;7;0;6120;0;0;0;0;8;0;6137;0;0;0;0;9;0;3310;0;0;0;0
17.02.18;20:25:00;1;446;8553;0;2;0;5154;0;0;0;0;3;0;3279;0;0;0;0;4;0;4548;0;0;0;0;5;0;11799;2;0;0;0;0;0;6;0;8774;2;0;0;0;0;0;7;0;6120;0;0;0;0;8;0;6137;0;0;0;0;9;0;3310;0;0;0;0
17.02.18;20:20:00;1;479;8514;0;2;0;5154;0;0;0;0;3;0;3279;0;0;0;0;4;0;4548;0;0;0;0;5;0;11799;2;0;0;0;0;0;6;0;8774;2;0;0;0;0;0;7;0;6120;0;0;0;0;8;0;6137;0;0;0;0;9;0;3310;0;0;0;0
17.02.18;20:15:00;1;841;8474;0;2;0;5154;0;0;0;0;3;0;3279;0;0;0;0;4;0;4548;0;0;0;0;5;0;11799;2;0;0;0;0;0;6;0;8774;2;0;0;0;0;0;7;0;6120;0;0;0;0;8;0;6137;0;0;0;0;9;0;3310;0;0;0;0
17.02.18;20:10:00;1;475;8403;0;2;0;5154;0;0;0;0;3;0;3279;0;0;0;0;4;0;4548;0;0;0;0;5;0;11799;2;0;0;0;0;0;6;0;8774;2;0;0;0;0;0;7;0;6120;0;0;0;0;8;0;6137;0;0;0;0;9;0;3310;0;0;0;0
17.02.18;20:05:00;1;472;8364;0;2;0;5154;0;0;0;0;3;0;3279;0;0;0;0;4;0;4548;0;0;0;0;5;0;11799;2;0;0;0;0;0;6;0;8774;2;0;0;0;0;0;7;0;6120;0;0;0;0;8;0;6137;0;0;0;0;9;0;3310;0;0;0;0
17.02.18;20:00:00;1;501;8326;0;2;0;5154;0;0;0;0;3;0;3279;0;0;0;0;4;0;4548;0;0;0;0;5;0;11799;2;0;0;0;0;0;6;0;8774;2;0;0;0;0;0;7;0;6120;0;0;0;0;8;0;6137;0;0;0;0;9;0;3310;0;0;0;0
17.02.18;19:55:00;1;1086;8284;0;2;0;5154;0;0;0;0;3;0;3279;0;0;0;0;4;0;4548;0;0;0;0;5;0;11799;2;0;0;0;0;0;6;0;8774;2;0;0;0;0;0;7;0;6120;0;0;0;0;8;0;6137;0;0;0;0;9;0;3310;0;0;0;0
17.02.18;19:50:00;1;524;8211;0;2;0;5154;0;0;0;0;3;0;3279;0;0;0;0;4;0;4548;0;0;0;0;5;0;11799;2;0;0;0;0;0;6;0;8774;2;0;0;0;0;0;7;0;6120;0;0;0;0;8;0;6137;0;0;0;0;9;0;3310;0;0;0;0
17.02.18;19:45:00;1;484;8168;0;2;0;5154;0;0;0;0;3;0;3279;0;0;0;0;4;0;4548;0;0;0;0;5;0;11799;2;0;0;0;0;0;6;0;8774;2;0;0;0;0;0;7;0;6120;0;0;0;0;8;0;6137;0;0;0;0;9;0;3310;0;0;0;0
17.02.18;19:40:00;1;658;8126;0;2;0;5154;0;0;0;0;3;0;3279;0;0;0;0;4;0;4548;0;0;0;0;5;0;11799;2;0;0;0;0;0;6;0;8774;2;0;0;0;0;0;7;0;6120;0;0;0;0;8;0;6137;0;0;0;0;9;0;3310;0;0;0;0
17.02.18;19:35:00;1;661;8056;0;2;0;5154;0;0;0;0;3;0;3279;0;0;0;0;4;0;4548;0;0;0;0;5;0;11799;2;0;0;0;0;0;6;0;8774;2;0;0;0;0;0;7;0;6120;0;0;0;0;8;0;6137;0;0;0;0;9;0;3310;0;0;0;0
17.02.18;19:30:00;1;1504;8014;0;2;0;5154;0;0;0;0;3;0;3279;0;0;0;0;4;0;4548;0;0;0;0;5;0;11799;2;0;0;0;0;0;6;0;8774;2;0;0;0;0;0;7;0;6120;0;0;0;0;8;0;6137;0;0;0;0;9;0;3310;0;0;0;0
17.02.18;19:25:00;1;1091;7920;0;2;0;5154;0;0;0;0;3;0;3279;0;0;0;0;4;0;4548;0;0;0;0;5;0;11799;2;0;0;0;0;0;6;0;8774;2;0;0;0;0;0;7;0;6120;0;0;0;0;8;0;6137;0;0;0;0;9;0;3310;0;0;0;0
17.02.18;19:20:00;1;2735;7791;0;2;0;5154;0;0;0;0;3;0;3279;0;0;0;0;4;0;4548;0;0;0;0;5;0;11799;2;0;0;0;0;0;6;0;8774;2;0;0;0;0;0;7;0;6120;0;0;0;0;8;0;6137;0;0;0;0;9;0;3310;0;0;0;0
17.02.18;19:15:00;1;2385;7564;0;2;0;5154;0;0;0;0;3;0;3279;0;0;0;0;4;0;4548;0;0;0;0;5;0;11799;2;0;0;0;0;0;6;0;8774;2;0;0;0;0;0;7;0;6120;0;0;0;0;8;0;6137;0;0;0;0;9;0;3310;0;0;0;0
17.02.18;19:10:00;1;2357;7365;0;2;0;5154;0;0;0;0;3;0;3279;0;0;0;0;4;0;4548;0;0;0;0;5;0;11799;2;0;0;0;0;0;6;0;8774;2;0;0;0;0;0;7;0;6120;0;0;0;0;8;0;6137;0;0;0;0;9;0;3310;0;0;0;0
17.02.18;19:05:00;1;2368;7168;0;2;0;5154;0;0;0;0;3;0;3279;0;0;0;0;4;0;4548;0;0;0;0;5;0;11799;2;0;0;0;0;0;6;0;8774;2;0;0;0;0;0;7;0;6120;0;0;0;0;8;0;6137;0;0;0;0;9;0;3310;0;0;0;0
17.02.18;19:00:00;1;2077;6976;0;2;0;5154;0;0;0;0;3;0;3279;0;0;0;0;4;0;4548;0;0;0;0;5;0;11799;2;0;0;0;0;0;6;0;8774;2;0;0;0;0;0;7;0;6120;0;0;0;0;8;0;6137;0;0;0;0;9;0;3310;0;0;0;0
17.02.18;18:55:00;1;624;6775;0;2;0;5154;0;0;0;0;3;0;3279;0;0;0;0;4;0;4548;0;0;0;0;5;0;11799;2;0;0;0;0;0;6;0;8774;2;0;0;0;0;0;7;0;6120;0;0;0;0;8;0;6137;0;0;0;0;9;0;3310;0;0;0;0
17.02.18;18:50:00;1;518;6727;0;2;0;5154;0;0;0;0;3;0;3279;0;0;0;0;4;0;4548;0;0;0;0;5;0;11799;2;0;0;0;0;0;6;0;8774;2;0;0;0;0;0;7;0;6120;0;0;0;0;8;0;6137;0;0;0;0;9;0;3310;0;0;0;0
17.02.18;18:45:00;1;550;6683;0;2;0;5154;0;0;0;0;3;0;3279;0;0;0;0;4;0;4548;0;0;0;0;5;0;11799;2;0;0;0;0;0;6;0;8774;2;0;0;0;0;0;7;0;6120;0;0;0;0;8;0;6137;0;0;0;0;9;0;3310;0;0;0;0
17.02.18;18:40:00;1;578;6622;0;2;0;5154;0;0;0;0;3;0;3279;0;0;0;0;4;0;4548;0;0;0;0;5;0;11799;2;0;0;0;0;0;6;0;8774;2;0;0;0;0;0;7;0;6120;0;0;0;0;8;0;6137;0;0;0;0;9;0;3310;0;0;0;0
17.02.18;18:35:00;1;230;6588;0;2;0;5154;0;0;0;0;3;0;3279;0;0;0;0;4;0;4548;0;0;0;0;5;0;11799;2;0;0;0;0;0;6;0;8774;2;0;0;0;0;0;7;0;6120;0;0;0;0;8;0;6137;0;0;0;0;9;0;3310;0;0;0;0
17.02.18;18:30:00;1;230;6569;0;2;0;5154;0;0;0;0;3;0;3279;0;0;0;0;4;0;4548;0;0;0;0;5;0;11799;2;0;0;0;0;0;6;0;8774;2;0;0;0;0;0;7;0;6120;0;0;0;0;8;0;6137;0;0;0;0;9;0;3310;0;0;0;0
17.02.18;18:25:00;1;226;6550;0;2;0;5154;0;0;0;0;3;0;3279;0;0;0;0;4;0;4548;0;0;0;0;5;0;11799;2;0;0;0;0;0;6;0;8774;2;0;0;0;0;0;7;0;6120;0;0;0;0;8;0;6137;0;0;0;0;9;0;3310;0;0;0;0
17.02.18;18:20:00;1;535;6531;0;2;0;5154;0;0;0;0;3;0;3279;0;0;0;0;4;0;4548;0;0;0;0;5;0;11799;2;0;0;0;0;0;6;0;8774;2;0;0;0;0;0;7;0;6120;0;0;0;0;8;0;6137;0;0;0;0;9;0;3310;0;0;0;0
17.02.18;18:15:00;1;188;6486;0;2;0;5154;0;0;0;0;3;0;3279;0;0;0;0;4;0;4548;0;0;0;0;5;0;11799;2;0;0;0;0;0;6;0;8774;2;0;0;0;0;0;7;0;6120;0;0;0;0;8;0;6137;0;0;0;0;9;0;3310;0;0;0;0
17.02.18;18:10:00;1;188;6470;0;2;0;5154;0;0;0;0;3;0;3279;0;0;0;0;4;0;4548;0;0;0;0;5;0;11799;2;0;0;0;0;0;6;0;8774;2;0;0;0;0;0;7;0;6120;0;0;0;0;8;0;6137;0;0;0;0;9;0;3310;0;0;0;0
17.02.18;18:05:00;1;187;6454;0;2;0;5154;0;0;0;0;3;0;3279;0;0;0;0;4;0;4548;0;0;0;0;5;0;11799;2;0;0;0;0;0;6;0;8774;2;0;0;0;0;0;7;0;6120;0;0;0;0;8;0;6137;0;0;0;0;9;0;3310;0;0;0;0
17.02.18;18:00:00;1;543;6428;0;2;0;5154;0;0;0;0;3;0;3279;0;0;0;0;4;0;4548;0;0;0;0;5;0;11799;2;0;0;0;0;0;6;0;8774;2;0;0;0;0;0;7;0;6120;0;0;0;0;8;0;6137;0;0;0;0;9;0;3310;0;0;0;0
17.02.18;17:55:00;1;188;6392;0;2;0;5154;0;0;0;0;3;0;3279;0;0;0;0;4;0;4548;0;0;0;0;5;0;11799;2;0;0;0;0;0;6;0;8774;2;0;0;0;0;0;7;0;6120;0;0;0;0;8;0;6137;0;0;0;0;9;0;3310;0;0;0;0
17.02.18;17:50:00;1;186;6377;0;2;0;5154;0;0;0;0;3;0;3279;0;0;0;0;4;0;4548;0;0;0;0;5;0;11799;2;0;0;0;0;0;6;0;8774;2;0;0;0;0;0;7;0;6120;0;0;0;0;8;0;6137;0;0;0;0;9;0;3310;0;0;0;0
17.02.18;17:45:00;1;191;6361;0;2;0;5154;0;0;0;0;3;0;3279;0;0;0;0;4;0;4548;0;0;0;0;5;0;11799;2;0;0;0;0;0;6;0;8774;2;0;0;0;0;0;7;0;6120;0;0;0;0;8;0;6137;0;0;0;0;9;0;3310;0;0;0;0
17.02.18;17:40:00;1;648;6336;0;2;0;5154;0;0;0;0;3;0;3279;0;0;0;0;4;0;4548;0;0;0;0;5;0;11799;2;0;0;0;0;0;6;0;8774;2;0;0;0;0;0;7;0;6120;0;0;0;0;8;0;6137;0;0;0;0;9;0;3310;0;0;0;0
17.02.18;17:35:00;1;289;6292;0;2;0;5154;0;0;0;0;3;0;3279;0;0;0;0;4;0;4548;0;0;0;0;5;0;11799;2;0;0;0;0;0;6;0;8774;2;0;0;0;0;0;7;0;6120;0;0;0;0;8;0;6137;0;0;0;0;9;0;3310;0;0;0;0
17.02.18;17:30:00;1;277;6267;0;2;0;5154;0;0;0;0;3;0;3279;0;0;0;0;4;0;4548;0;0;0;0;5;0;11799;2;0;0;0;0;0;6;0;8774;2;0;0;0;0;0;7;0;6120;0;0;0;0;8;0;6137;0;0;0;0;9;0;3310;0;0;0;0
17.02.18;17:25:00;1;450;6244;0;2;0;5154;0;0;0;0;3;0;3279;0;0;35;1;4;0;4548;0;0;0;0;5;0;11799;2;0;0;0;0;0;6;0;8774;2;0;0;0;0;0;7;0;6120;0;0;0;0;8;0;6137;0;0;0;0;9;0;3310;0;0;0;0
17.02.18;17:20:00;1;250;6194;0;2;0;5154;0;0;144;4;3;0;3279;6;0;280;11;4;0;4548;0;0;0;0;5;0;11799;2;0;0;0;0;0;6;0;8774;2;0;0;0;0;0;7;0;6120;0;0;0;0;8;0;6137;0;0;0;0;9;0;3310;0;0;0;0
17.02.18;17:15:00;1;248;6173;0;2;0;5154;6;0;288;7;3;0;3279;6;0;317;11;4;0;4548;0;0;0;0;5;0;11799;2;0;0;0;0;0;6;0;8774;1;0;0;0;0;0;7;0;6120;0;0;0;0;8;0;6137;0;0;0;0;9;0;3310;0;0;0;0
17.02.18;17:10:00;1;259;6153;0;2;0;5154;6;0;311;7;3;0;3279;6;0;360;11;4;0;4548;0;0;0;0;5;0;11799;2;0;0;0;0;0;6;0;8774;2;0;0;0;0;0;7;0;6120;0;0;0;0;8;0;6137;0;0;0;0;9;0;3310;0;0;0;0
17.02.18;17:05:00;1;251;6131;0;2;0;5154;6;0;316;7;3;0;3279;6;0;370;11;4;0;4548;2;0;79;5;5;0;11799;2;0;1;80;79;5;6;0;8774;2;0;0;0;0;0;7;0;6120;0;0;0;0;8;0;6137;0;0;0;0;9;0;3310;0;0;0;0
17.02.18;17:00:00;1;419;6095;0;2;0;5154;6;0;348;7;3;0;3279;4;0;416;11;4;0;4548;1;0;111;6;5;0;11799;26;0;2;187;185;11;6;0;8774;1;0;0;0;0;5;7;0;6120;0;0;140;4;8;0;6137;0;0;0;0;9;0;3310;0;0;0;0
17.02.18;16:55:00;1;183;6070;0;2;0;5154;6;0;337;7;3;0;3279;6;0;384;11;4;0;4548;1;0;98;6;5;0;11799;2;0;1;105;103;10;6;0;8774;1;2;2;71;165;8;7;0;6120;0;0;104;4;8;0;6137;0;0;48;1;9;0;3310;0;0;52;1
17.02.18;16:50:00;1;197;6055;0;2;0;5154;6;0;361;7;3;0;3279;6;1;429;11;4;0;4548;1;0;127;6;5;0;11799;23;0;5;307;305;15;6;0;8774;23;4;3;189;259;12;7;0;6120;6;0;309;10;8;0;6137;7;0;246;7;9;0;3310;6;0;301;7
17.02.18;16:45:00;1;535;6038;0;2;0;5154;6;0;376;7;3;0;3279;6;4;420;11;4;0;4548;1;0;149;6;5;0;11799;26;0;0;377;392;18;6;0;8774;23;4;4;482;224;16;7;0;6120;6;0;330;10;8;0;6137;0;0;260;8;9;0;3310;6;0;323;7
17.02.18;16:40:00;1;225;5989;0;2;0;5154;6;0;380;7;3;0;3279;6;1;453;11;4;0;4548;1;0;155;6;5;0;11799;23;0;0;407;527;18;6;0;8774;23;5;5;308;471;16;7;0;6120;6;0;360;10;8;0;6137;6;0;344;10;9;0;3310;6;0;359;7
17.02.18;16:35:00;1;201;5971;0;2;0;5154;6;0;394;8;3;0;3279;6;2;470;11;4;0;4548;1;0;181;6;5;6;11799;4;0;1;410;617;19;6;0;8774;23;4;4;181;560;16;7;0;6120;6;0;397;11;8;0;6137;6;0;382;10;9;0;3310;6;0;391;7
17.02.18;16:30:00;1;184;5953;0;2;0;5154;6;0;395;8;3;0;3279;6;1;474;11;4;0;4548;1;0;184;7;5;6;11798;1;0;1;409;586;19;6;0;8774;23;4;4;182;562;17;7;0;6120;6;0;403;11;8;0;6137;6;0;390;10;9;0;3310;6;0;414;7
17.02.18;16:25:00;1;208;5938;0;2;0;5154;6;0;408;8;3;0;3279;4;3;479;12;4;0;4548;1;0;211;7;5;15;11798;1;0;4;414;652;19;6;0;8774;23;5;4;408;584;17;7;0;6120;6;1;426;11;8;0;6137;6;1;418;10;9;0;3310;6;1;424;8
17.02.18;16:20:00;1;420;5903;0;2;2;5154;6;4;409;8;3;1;3278;6;4;506;12;4;0;4548;1;0;205;7;5;46;11797;1;12;9;395;626;20;6;0;8774;23;3;5;506;595;17;7;0;6120;6;1;458;11;8;0;6137;6;1;449;10;9;1;3310;6;1;492;8
17.02.18;16:15:00;1;184;5877;0;2;0;5154;6;0;420;8;3;1;3278;6;4;505;12;4;0;4548;3;0;211;7;5;65;11792;4;14;14;382;600;19;6;0;8774;8;13;5;438;598;18;7;1;6120;6;2;459;11;8;2;6137;6;2;453;11;9;0;3309;6;0;494;8
17.02.18;16:10:00;1;192;5861;0;2;1;5154;3;9;398;8;3;1;3278;6;3;484;12;4;0;4548;3;0;210;8;5;22;11788;1;5;6;417;663;19;6;0;8774;23;2;4;484;595;18;7;0;6120;6;0;473;11;8;0;6137;6;1;452;11;9;1;3309;3;3;470;8
17.02.18;16:05:00;1;240;5845;0;2;0;5154;6;0;413;8;3;0;3278;6;3;494;12;4;0;4548;3;0;204;8;5;22;11785;4;5;5;416;656;19;6;0;8774;23;4;5;494;591;18;7;2;6120;3;4;419;11;8;1;6137;6;2;437;11;9;0;3309;6;1;456;8
17.02.18;16:00:00;1;419;5808;0;2;1;5154;6;5;406;8;3;1;3278;6;3;506;12;4;0;4548;3;0;211;8;5;44;11784;1;9;8;407;650;20;6;0;8774;23;5;5;471;595;18;7;0;6120;6;1;452;11;8;0;6136;3;3;429;11;9;0;3309;6;1;486;8
17.02.18;15:55:00;1;223;5782;0;2;0;5154;6;5;403;9;3;1;3278;4;4;498;12;4;0;4548;3;0;202;8;5;12;11781;1;2;6;426;676;20;6;0;8774;8;4;3;225;594;19;7;0;6120;6;2;445;12;8;1;6136;6;4;426;11;9;0;3309;6;2;477;8
17.02.18;15:50:00;1;231;5763;0;2;0;5154;6;0;417;9;3;3;3278;3;8;479;12;4;0;4548;1;0;222;8;5;34;11780;1;7;9;413;657;20;6;0;8774;23;3;4;397;593;19;7;0;6120;6;3;431;12;8;0;6136;6;1;446;11;9;0;3309;6;2;462;8
17.02.18;15:45:00;1;313;5744;0;2;5;5154;3;16;396;9;3;2;3278;6;5;510;12;4;0;4548;3;0;216;9;5;82;11776;4;21;20;388;617;21;6;40;8774;1;16;23;492;473;20;7;0;6120;6;2;459;12;8;2;6136;6;2;455;11;9;0;3309;6;0;523;9
17.02.18;15:40:00;1;994;5718;0;2;4;5153;6;8;421;9;3;1;3277;6;6;527;12;4;0;4548;3;0;217;9;5;112;11769;4;41;35;388;617;21;6;24;8770;4;11;15;544;556;20;7;1;6120;6;7;488;12;8;3;6136;6;14;460;12;9;2;3309;4;6;510;9
17.02.18;15:35:00;1;286;5662;0;2;9;5153;6;21;401;9;3;0;3277;6;6;519;12;4;0;4548;3;0;226;9;5;102;11760;4;36;31;388;617;21;6;39;8768;1;25;16;493;296;21;7;1;6119;4;5;469;12;8;0;6136;6;0;491;12;9;1;3309;6;3;507;9
17.02.18;15:30:00;1;287;5638;0;2;7;5152;6;11;425;10;3;2;3277;6;7;534;13;4;0;4548;3;0;236;9;5;128;11751;4;52;40;388;617;21;6;65;8764;4;47;28;461;219;21;7;9;6119;6;15;468;13;8;3;6136;4;14;470;12;9;3;3309;6;9;513;9
17.02.18;15:25:00;1;276;5614;0;2;42;5152;6;66;381;10;3;2;3277;4;7;532;13;4;6;4548;3;7;198;10;5;153;11740;4;65;46;388;617;21;6;76;8759;4;57;34;461;218;21;7;15;6119;6;28;457;13;8;6;6136;6;12;486;12;9;1;3308;6;5;540;9
17.02.18;15:20:00;1;894;5592;0;2;90;5149;4;123;393;10;3;14;3277;3;26;536;13;4;42;4547;3;44;197;10;5;240;11727;4;112;98;388;617;21;6;113;8752;4;83;46;461;218;21;7;62;6117;4;96;448;13;8;60;6135;4;93;419;13;9;8;3308;6;16;534;9
17.02.18;15:15:00;1;251;5541;0;2;124;5141;4;157;386;11;3;65;3276;4;105;490;13;4;65;4544;3;68;198;10;5;300;11706;4;145;120;388;617;21;6;140;8743;4;93;48;461;218;21;7;100;6112;4;132;423;13;8;88;6130;4;124;444;13;9;7;3308;6;11;571;9
17.02.18;15:10:00;1;250;5520;0;2;154;5131;4;187;393;11;3;85;3270;4;124;495;14;4;101;4538;3;105;222;10;5;350;11681;4;175;145;388;617;21;6;183;8731;4;98;74;461;300;21;7;140;6104;4;171;412;13;8;138;6122;4;169;450;13;9;71;3307;4;99;488;10
17.02.18;15:05:00;1;233;5499;0;2;200;5118;4;232;393;11;3;115;3263;4;158;516;14;4;138;4530;5;143;234;10;5;425;11652;4;212;181;401;629;21;6;303;8715;4;130;150;516;543;21;7;179;6092;4;219;439;13;8;185;6111;4;222;450;13;9;97;3301;4;126;513;10
17.02.18;15:00:00;1;497;5478;0;2;242;5101;4;279;397;11;3;145;3254;4;188;525;14;4;183;4519;5;191;236;10;5;499;11615;4;249;215;413;644;21;6;383;8689;4;176;194;580;567;21;7;236;6077;4;272;456;13;8;235;6096;4;276;475;13;9;125;3293;4;157;525;10
17.02.18;14:55:00;1;227;5430;0;2;238;5081;4;271;398;11;3;144;3242;4;187;511;14;4;175;4504;5;183;235;10;5;509;11573;4;250;216;416;649;21;6;378;8657;4;188;205;582;569;21;7;242;6058;4;271;456;13;8;244;6076;4;278;457;13;9;126;3283;4;155;539;10
17.02.18;14:50:00;1;272;5411;0;2;257;5061;4;294;394;11;3;159;3230;4;198;512;14;4;195;4489;5;203;234;10;5;540;11531;4;275;232;410;642;21;6;408;8625;4;199;217;594;568;21;7;245;6037;4;289;477;13;8;260;6056;4;296;467;13;9;132;3272;4;165;537;10
17.02.18;14:45:00;1;185;5392;0;2;247;5040;4;283;394;11;3;149;3216;4;191;520;14;4;187;4473;5;195;232;10;5;530;11486;4;268;233;411;628;21;6;401;8591;4;211;232;584;561;21;7;247;6017;4;284;467;13;8;238;6034;4;290;473;13;9;134;3261;4;163;534;10
17.02.18;14:40:00;1;201;5376;0;2;252;5019;4;288;400;11;3;149;3204;4;190;524;14;4;197;4457;5;206;232;10;5;543;11442;4;280;226;409;621;21;6;409;8558;4;180;195;586;563;21;7;240;5997;4;281;456;13;8;251;6014;4;286;460;13;9;131;3250;4;162;515;10
17.02.18;14:35:00;1;468;5343;0;2;299;4998;4;335;398;12;3;184;3191;4;223;509;14;4;240;4441;5;250;236;10;5;640;11396;4;313;271;415;664;21;6;480;8523;4;237;257;591;567;21;7;299;5977;4;334;471;13;8;301;5993;4;339;471;13;9;159;3239;4;191;513;11
17.02.18;14:30:00;1;185;5315;0;2;341;4974;4;380;409;12;3;212;3176;4;255;510;14;4;280;4421;5;291;240;11;5;736;11342;4;374;310;411;662;22;6;548;8483;4;270;281;590;575;21;7;341;5952;4;387;479;14;8;354;5969;4;387;486;13;9;189;3226;4;223;530;11
17.02.18;14:25:00;1;185;5300;0;2;324;4945;4;362;405;12;3;202;3158;4;246;509;14;4;261;4398;5;272;238;11;5;700;11280;4;338;295;415;684;22;6;518;8437;4;270;279;583;577;21;7;324;5924;4;360;471;14;8;328;5939;4;370;472;13;9;177;3210;4;211;519;11
17.02.18;14:20:00;1;184;5284;0;2;397;4918;4;438;402;12;3;246;3142;4;289;519;14;4;328;4376;5;342;238;11;5;854;11222;4;434;362;421;691;22;6;633;8393;4;291;296;597;578;21;7;404;5897;4;444;467;14;8;405;5912;4;445;479;13;9;215;3196;4;251;529;11
17.02.18;14:15:00;1;896;5268;0;2;424;4885;4;466;407;12;3;265;3121;4;309;525;14;4;353;4349;5;368;241;11;5;908;11151;4;453;382;422;691;22;6;672;8340;4;338;347;596;580;21;7;449;5864;4;481;480;14;8;445;5878;4;488;483;13;9;237;3178;4;274;514;11
17.02.18;14:10:00;1;191;5225;0;2;430;4850;4;474;406;12;3;269;3099;4;316;518;14;4;362;4319;5;377;243;11;5;932;11076;4;464;396;418;685;22;6;696;8283;4;369;377;593;579;21;7;458;5826;4;496;477;14;8;455;5841;4;497;488;13;9;243;3158;4;281;532;11
17.02.18;14:05:00;1;226;5209;0;2;420;4814;4;460;407;12;3;262;3077;4;307;515;14;4;354;4289;5;369;240;11;5;896;10997;4;457;383;424;670;22;6;680;8225;4;324;342;593;578;21;7;476;5788;4;522;481;14;8;480;5803;4;521;486;13;9;257;3138;4;297;530;11
17.02.18;14:00:00;1;226;5190;0;2;353;4780;4;394;404;12;3;220;3055;4;262;522;15;4;291;4260;5;303;238;11;5;761;10925;4;392;329;420;660;22;6;575;8170;4;282;302;587;570;21;7;356;5749;4;407;461;14;8;368;5764;4;408;487;13;9;199;3117;4;232;515;11
17.02.18;13:55:00;1;465;5171;0;2;416;4750;4;458;403;12;3;258;3037;4;304;510;15;4;345;4236;5;360;239;11;5;902;10861;4;454;380;422;669;22;6;671;8122;4;342;360;592;577;21;7;427;5719;4;474;473;14;8;430;5733;4;473;476;14;9;233;3100;4;267;518;11
17.02.18;13:50:00;1;185;5124;0;2;477;4715;4;521;403;13;3;298;3015;4;345;509;15;4;401;4206;5;418;238;11;5;990;10785;4;509;425;424;679;22;6;753;8065;4;375;384;597;579;21;7;503;5683;4;552;474;14;8;511;5697;4;553;470;14;9;273;3080;4;310;530;12
17.02.18;13:45:00;1;185;5109;0;2;475;4676;4;524;407;13;3;298;2990;4;344;524;15;4;399;4173;5;416;238;11;5;994;10702;4;505;427;432;688;22;6;748;8002;4;366;380;597;580;21;7;497;5641;4;538;483;14;8;499;5655;4;540;464;14;9;269;3058;4;305;530;12